Time,TemperatureF,DewpointF,PressureIn,WindDirection,WindDirectionDegrees,WindSpeedMPH,WindSpeedGustMPH,Humidity,HourlyPrecipIn,Conditions,Clouds,dailyrainin,SoftwareType,DateUTC
2013-04-16 00:01:00,46.7,37.1,30.34,SE,135,1.0,3.0,69,0.00,,,-99.99,WeatherLink 5.7,2013-04-16 04:01:00,
2013-04-16 00:11:00,46.7,37.1,30.35,SE,135,0.0,2.0,69,0.00,,,-99.99,WeatherLink 5.7,2013-04-16 04:11:00,
2013-04-16 00:21:00,46.5,37.2,30.34,SE,135,2.0,4.0,70,0.00,,,-99.99,WeatherLink 5.7,2013-04-16 04:21:00,
2013-04-16 00:31:00,46.4,37.5,30.35,SE,135,2.0,4.0,71,0.00,,,-99.99,WeatherLink 5.7,2013-04-16 04:31:00,
2013-04-16 00:41:00,46.3,37.8,30.34,ESE,112,2.0,4.0,72,0.00,,,-99.99,WeatherLink 5.7,2013-04-16 04:41:00,
2013-04-16 00:51:00,46.1,37.9,30.34,SE,135,2.0,5.0,73,0.00,,,-99.99,WeatherLink 5.7,2013-04-16 04:51:00,
2013-04-16 01:01:00,45.9,38.1,30.34,SE,135,2.0,4.0,74,0.00,,,-99.99,WeatherLink 5.7,2013-04-16 05:01:00,
2013-04-16 01:11:00,45.8,38.3,30.35,ESE,112,2.0,5.0,75,0.00,,,-99.99,WeatherLink 5.7,2013-04-16 05:11:00,
2013-04-16 01:21:00,45.8,38.3,30.34,ESE,112,2.0,4.0,75,0.00,,,-99.99,WeatherLink 5.7,2013-04-16 05:21:00,
2013-04-16 01:31:00,45.7,38.6,30.34,SE,135,2.0,4.0,76,0.00,,,-99.99,WeatherLink 5.7,2013-04-16 05:31:00,
2013-04-16 01:41:00,45.6,38.5,30.34,SSE,157,1.0,3.0,76,0.00,,,-99.99,WeatherLink 5.7,2013-04-16 05:41:00,
2013-04-16 01:51:00,45.5,38.4,30.34,SSE,157,1.0,2.0,76,0.00,,,-99.99,WeatherLink 5.7,2013-04-16 05:51:00,
2013-04-16 02:01:00,45.4,38.6,30.34,SSE,157,1.0,2.0,77,0.00,,,-99.99,WeatherLink 5.7,2013-04-16 06:01:00,
2013-04-16 02:11:00,45.4,38.6,30.33,ESE,112,1.0,3.0,77,0.00,,,-99.99,WeatherLink 5.7,2013-04-16 06:11:00,
2013-04-16 02:21:00,45.3,38.8,30.33,SE,135,1.0,3.0,78,0.00,,,-99.99,WeatherLink 5.7,2013-04-16 06:21:00,
2013-04-16 02:31:00,45.4,38.9,30.33,SE,135,1.0,2.0,78,0.00,,,-99.99,WeatherLink 5.7,2013-04-16 06:31:00,
2013-04-16 02:41:00,45.2,38.7,30.33,SE,135,1.0,3.0,78,0.00,,,-99.99,WeatherLink 5.7,2013-04-16 06:41:00,
2013-04-16 02:51:00,45.0,38.9,30.33,SE,135,1.0,3.0,79,0.00,,,-99.99,WeatherLink 5.7,2013-04-16 06:51:00,
2013-04-16 03:01:00,45.0,38.9,30.33,SE,135,1.0,2.0,79,0.00,,,-99.99,WeatherLink 5.7,2013-04-16 07:01:00,
2013-04-16 03:11:00,45.0,39.2,30.32,SE,135,1.0,2.0,80,0.00,,,-99.99,WeatherLink 5.7,2013-04-16 07:11:00,
2013-04-16 03:21:00,45.0,39.2,30.33,SE,135,0.0,2.0,80,0.00,,,-99.99,WeatherLink 5.7,2013-04-16 07:21:00,
2013-04-16 03:31:00,45.0,39.2,30.33,SE,135,1.0,3.0,80,0.00,,,-99.99,WeatherLink 5.7,2013-04-16 07:31:00,
2013-04-16 03:41:00,44.9,39.4,30.33,SE,135,1.0,3.0,81,0.00,,,-99.99,WeatherLink 5.7,2013-04-16 07:41:00,
2013-04-16 03:51:00,44.9,39.4,30.32,SE,135,2.0,4.0,81,0.00,,,-99.99,WeatherLink 5.7,2013-04-16 07:51:00,
2013-04-16 04:01:00,44.9,39.4,30.32,SE,135,1.0,3.0,81,0.00,,,-99.99,WeatherLink 5.7,2013-04-16 08:01:00,
2013-04-16 04:11:00,44.9,39.4,30.32,SE,135,2.0,3.0,81,0.00,,,-99.99,WeatherLink 5.7,2013-04-16 08:11:00,
2013-04-16 04:21:00,45.0,39.5,30.33,SE,135,2.0,4.0,81,0.00,,,-99.99,WeatherLink 5.7,2013-04-16 08:21:00,
2013-04-16 04:31:00,45.0,39.8,30.33,SE,135,2.0,3.0,82,0.00,,,-99.99,WeatherLink 5.7,2013-04-16 08:31:00,
2013-04-16 04:41:00,45.0,39.8,30.33,SE,135,2.0,4.0,82,0.00,,,-99.99,WeatherLink 5.7,2013-04-16 08:41:00,
2013-04-16 04:51:00,45.1,39.9,30.32,SE,135,1.0,3.0,82,0.00,,,-99.99,WeatherLink 5.7,2013-04-16 08:51:00,
2013-04-16 05:01:00,45.1,39.9,30.32,ESE,112,1.0,4.0,82,0.00,,,-99.99,WeatherLink 5.7,2013-04-16 09:01:00,
2013-04-16 05:11:00,45.2,40.0,30.33,ESE,112,0.0,2.0,82,0.00,,,-99.99,WeatherLink 5.7,2013-04-16 09:11:00,
2013-04-16 05:21:00,45.3,40.1,30.32,ESE,112,1.0,3.0,82,0.00,,,-99.99,WeatherLink 5.7,2013-04-16 09:21:00,
2013-04-16 05:31:00,45.3,40.4,30.31,ESE,112,1.0,3.0,83,0.00,,,-99.99,WeatherLink 5.7,2013-04-16 09:31:00,
2013-04-16 05:41:00,45.3,40.4,30.32,ESE,112,1.0,2.0,83,0.00,,,-99.99,WeatherLink 5.7,2013-04-16 09:41:00,
2013-04-16 05:51:00,45.3,40.4,30.32,ESE,112,1.0,3.0,83,0.00,,,-99.99,WeatherLink 5.7,2013-04-16 09:51:00,
2013-04-16 06:01:00,45.3,40.4,30.32,ESE,112,1.0,4.0,83,0.00,,,-99.99,WeatherLink 5.7,2013-04-16 10:01:00,
2013-04-16 06:11:00,45.3,40.4,30.32,South,180,2.0,3.0,83,0.00,,,-99.99,WeatherLink 5.7,2013-04-16 10:11:00,
2013-04-16 06:21:00,45.4,40.8,30.32,SE,135,2.0,3.0,84,0.00,,,-99.99,WeatherLink 5.7,2013-04-16 10:21:00,
2013-04-16 06:31:00,45.4,40.8,30.32,SE,135,1.0,3.0,84,0.00,,,-99.99,WeatherLink 5.7,2013-04-16 10:31:00,
2013-04-16 06:41:00,45.5,40.9,30.33,ESE,112,2.0,5.0,84,0.00,,,-99.99,WeatherLink 5.7,2013-04-16 10:41:00,
2013-04-16 06:51:00,45.6,40.7,30.33,SE,135,2.0,5.0,83,0.00,,,-99.99,WeatherLink 5.7,2013-04-16 10:51:00,
2013-04-16 07:01:00,45.7,41.1,30.32,ESE,112,1.0,3.0,84,0.00,,,-99.99,WeatherLink 5.7,2013-04-16 11:01:00,
2013-04-16 07:11:00,45.8,41.2,30.32,ESE,112,1.0,3.0,84,0.00,,,-99.99,WeatherLink 5.7,2013-04-16 11:11:00,
2013-04-16 07:21:00,45.8,41.2,30.33,SE,135,1.0,4.0,84,0.00,,,-99.99,WeatherLink 5.7,2013-04-16 11:21:00,
2013-04-16 07:31:00,45.9,41.3,30.33,SE,135,1.0,3.0,84,0.00,,,-99.99,WeatherLink 5.7,2013-04-16 11:31:00,
2013-04-16 07:41:00,46.6,41.7,30.33,SE,135,1.0,3.0,83,0.00,,,-99.99,WeatherLink 5.7,2013-04-16 11:41:00,
2013-04-16 07:51:00,47.6,42.1,30.34,SE,135,1.0,3.0,81,0.00,,,-99.99,WeatherLink 5.7,2013-04-16 11:51:00,
2013-04-16 08:01:00,47.7,42.2,30.33,SE,135,1.0,3.0,81,0.00,,,-99.99,WeatherLink 5.7,2013-04-16 12:01:00,
2013-04-16 08:11:00,48.4,42.5,30.33,ESE,112,1.0,3.0,80,0.00,,,-99.99,WeatherLink 5.7,2013-04-16 12:11:00,
2013-04-16 08:21:00,49.6,43.0,30.33,ESE,112,1.0,4.0,78,0.00,,,-99.99,WeatherLink 5.7,2013-04-16 12:21:00,
2013-04-16 08:31:00,50.1,43.5,30.33,ESE,112,3.0,5.0,78,0.00,,,-99.99,WeatherLink 5.7,2013-04-16 12:31:00,
2013-04-16 08:41:00,51.0,43.7,30.33,ESE,112,1.0,5.0,76,0.00,,,-99.99,WeatherLink 5.7,2013-04-16 12:41:00,
2013-04-16 08:51:00,51.8,44.1,30.33,ESE,112,1.0,3.0,75,0.00,,,-99.99,WeatherLink 5.7,2013-04-16 12:51:00,
2013-04-16 09:01:00,52.4,44.4,30.33,SE,135,1.0,4.0,74,0.00,,,-99.99,WeatherLink 5.7,2013-04-16 13:01:00,
2013-04-16 09:12:00,53.9,44.7,30.33,ESE,112,2.0,5.0,71,0.00,,,-99.99,WeatherLink 5.7,2013-04-16 13:12:00,
2013-04-16 09:21:00,54.9,45.3,30.33,ESE,112,3.0,7.0,70,0.00,,,-99.99,WeatherLink 5.7,2013-04-16 13:21:00,
2013-04-16 09:31:00,54.7,45.5,30.33,SE,135,2.0,6.0,71,0.00,,,-99.99,WeatherLink 5.7,2013-04-16 13:31:00,
2013-04-16 09:41:00,55.2,45.2,30.33,SE,135,2.0,5.0,69,0.00,,,-99.99,WeatherLink 5.7,2013-04-16 13:41:00,
2013-04-16 09:51:00,55.6,45.2,30.33,ESE,112,3.0,6.0,68,0.00,,,-99.99,WeatherLink 5.7,2013-04-16 13:51:00,
2013-04-16 10:01:00,56.0,45.6,30.33,SE,135,2.0,5.0,68,0.00,,,-99.99,WeatherLink 5.7,2013-04-16 14:01:00,
2013-04-16 10:11:00,56.5,45.3,30.33,ESE,112,3.0,6.0,66,0.00,,,-99.99,WeatherLink 5.7,2013-04-16 14:11:00,
2013-04-16 10:21:00,57.9,46.2,30.31,ESE,112,3.0,7.0,65,0.00,,,-99.99,WeatherLink 5.7,2013-04-16 14:21:00,
2013-04-16 10:31:00,58.5,46.4,30.32,ESE,112,3.0,6.0,64,0.00,,,-99.99,WeatherLink 5.7,2013-04-16 14:31:00,
2013-04-16 10:41:00,59.1,46.9,30.32,ESE,112,2.0,4.0,64,0.00,,,-99.99,WeatherLink 5.7,2013-04-16 14:41:00,
2013-04-16 10:51:00,60.0,46.9,30.32,SE,135,2.0,6.0,62,0.00,,,-99.99,WeatherLink 5.7,2013-04-16 14:51:00,
2013-04-16 11:01:00,61.1,47.5,30.30,East,90,3.0,7.0,61,0.00,,,-99.99,WeatherLink 5.7,2013-04-16 15:01:00,
2013-04-16 11:11:00,61.0,47.9,30.31,ESE,112,4.0,8.0,62,0.00,,,-99.99,WeatherLink 5.7,2013-04-16 15:11:00,
2013-04-16 11:21:00,60.4,47.7,30.31,SE,135,3.0,7.0,63,0.00,,,-99.99,WeatherLink 5.7,2013-04-16 15:21:00,
2013-04-16 11:31:00,60.2,47.6,30.31,ESE,112,3.0,6.0,63,0.00,,,-99.99,WeatherLink 5.7,2013-04-16 15:31:00,
2013-04-16 11:41:00,61.8,48.2,30.30,ESE,112,3.0,7.0,61,0.00,,,-99.99,WeatherLink 5.7,2013-04-16 15:41:00,
2013-04-16 11:51:00,64.2,48.6,30.29,ESE,112,3.0,7.0,57,0.00,,,-99.99,WeatherLink 5.7,2013-04-16 15:51:00,
2013-04-16 12:01:00,65.4,49.8,30.27,ESE,112,4.0,9.0,57,0.00,,,-99.99,WeatherLink 5.7,2013-04-16 16:01:00,
2013-04-16 12:11:00,65.7,50.0,30.26,ESE,112,4.0,10.0,57,0.00,,,-99.99,WeatherLink 5.7,2013-04-16 16:11:00,
2013-04-16 12:21:00,66.2,49.6,30.27,ESE,112,4.0,8.0,55,0.00,,,-99.99,WeatherLink 5.7,2013-04-16 16:21:00,
2013-04-16 12:31:00,66.9,50.2,30.26,ESE,112,4.0,10.0,55,0.00,,,-99.99,WeatherLink 5.7,2013-04-16 16:31:00,
2013-04-16 12:41:00,68.6,51.3,30.27,ESE,112,4.0,9.0,54,0.00,,,-99.99,WeatherLink 5.7,2013-04-16 16:41:00,
2013-04-16 12:51:00,69.5,51.6,30.27,East,90,3.0,8.0,53,0.00,,,-99.99,WeatherLink 5.7,2013-04-16 16:51:00,
2013-04-16 13:01:00,69.7,51.8,30.27,East,90,3.0,8.0,53,0.00,,,-99.99,WeatherLink 5.7,2013-04-16 17:01:00,
2013-04-16 13:11:00,69.1,51.2,30.26,East,90,2.0,8.0,53,0.00,,,-99.99,WeatherLink 5.7,2013-04-16 17:11:00,
2013-04-16 13:21:00,68.5,51.2,30.27,East,90,3.0,7.0,54,0.00,,,-99.99,WeatherLink 5.7,2013-04-16 17:21:00,
2013-04-16 13:31:00,67.5,51.2,30.26,East,90,3.0,9.0,56,0.00,,,-99.99,WeatherLink 5.7,2013-04-16 17:31:00,
2013-04-16 13:41:00,67.4,51.2,30.25,ESE,112,1.0,6.0,56,0.00,,,-99.99,WeatherLink 5.7,2013-04-16 17:41:00,
2013-04-16 13:51:00,68.1,50.8,30.25,ENE,67,2.0,6.0,54,0.00,,,-99.99,WeatherLink 5.7,2013-04-16 17:51:00,
2013-04-16 14:01:00,68.7,51.4,30.24,ESE,112,3.0,7.0,54,0.00,,,-99.99,WeatherLink 5.7,2013-04-16 18:01:00,
2013-04-16 14:11:00,70.1,51.7,30.23,ESE,112,3.0,8.0,52,0.00,,,-99.99,WeatherLink 5.7,2013-04-16 18:11:00,
2013-04-16 14:21:00,70.0,52.1,30.23,East,90,3.0,6.0,53,0.00,,,-99.99,WeatherLink 5.7,2013-04-16 18:21:00,
2013-04-16 14:31:00,68.8,52.0,30.23,East,90,2.0,6.0,55,0.00,,,-99.99,WeatherLink 5.7,2013-04-16 18:31:00,
2013-04-16 14:41:00,69.5,52.1,30.22,East,90,1.0,6.0,54,0.00,,,-99.99,WeatherLink 5.7,2013-04-16 18:41:00,
2013-04-16 14:52:00,70.6,52.6,30.22,East,90,2.0,6.0,53,0.00,,,-99.99,WeatherLink 5.7,2013-04-16 18:52:00,
2013-04-16 15:01:00,70.4,54.4,30.21,ESE,112,3.0,7.0,57,0.00,,,-99.99,WeatherLink 5.7,2013-04-16 19:01:00,
2013-04-16 15:11:00,69.5,53.6,30.22,ESE,112,2.0,8.0,57,0.00,,,-99.99,WeatherLink 5.7,2013-04-16 19:11:00,
2013-04-16 15:21:00,69.6,53.7,30.21,ESE,112,1.0,5.0,57,0.00,,,-99.99,WeatherLink 5.7,2013-04-16 19:21:00,
2013-04-16 15:31:00,69.2,53.3,30.23,East,90,1.0,6.0,57,0.00,,,-99.99,WeatherLink 5.7,2013-04-16 19:31:00,
2013-04-16 15:41:00,68.6,53.2,30.22,NE,45,1.0,9.0,58,0.00,,,-99.99,WeatherLink 5.7,2013-04-16 19:41:00,
2013-04-16 15:51:00,68.2,53.3,30.22,North,0,1.0,3.0,59,0.00,,,-99.99,WeatherLink 5.7,2013-04-16 19:51:00,
2013-04-16 16:01:00,67.8,52.9,30.20,ENE,67,1.0,5.0,59,0.00,,,-99.99,WeatherLink 5.7,2013-04-16 20:01:00,
2013-04-16 16:11:00,67.8,53.4,30.20,WNW,292,1.0,5.0,60,0.00,,,-99.99,WeatherLink 5.7,2013-04-16 20:11:00,
2013-04-16 16:21:00,67.8,52.9,30.19,ENE,67,0.0,3.0,59,0.00,,,-99.99,WeatherLink 5.7,2013-04-16 20:21:00,
2013-04-16 16:31:00,68.2,53.3,30.19,ENE,67,2.0,6.0,59,0.00,,,-99.99,WeatherLink 5.7,2013-04-16 20:31:00,
2013-04-16 16:41:00,69.0,53.6,30.18,East,90,2.0,5.0,58,0.00,,,-99.99,WeatherLink 5.7,2013-04-16 20:41:00,
2013-04-16 16:51:00,69.1,53.7,30.18,East,90,2.0,7.0,58,0.00,,,-99.99,WeatherLink 5.7,2013-04-16 20:51:00,
2013-04-16 17:01:00,69.4,54.0,30.17,East,90,1.0,4.0,58,0.00,,,-99.99,WeatherLink 5.7,2013-04-16 21:01:00,
2013-04-16 17:11:00,70.2,54.2,30.16,ESE,112,2.0,4.0,57,0.00,,,-99.99,WeatherLink 5.7,2013-04-16 21:11:00,
2013-04-16 17:21:00,70.8,54.8,30.17,ESE,112,2.0,5.0,57,0.00,,,-99.99,WeatherLink 5.7,2013-04-16 21:21:00,
2013-04-16 17:31:00,69.9,54.9,30.16,ESE,112,2.0,6.0,59,0.00,,,-99.99,WeatherLink 5.7,2013-04-16 21:31:00,
2013-04-16 17:41:00,69.0,54.5,30.15,ESE,112,2.0,4.0,60,0.00,,,-99.99,WeatherLink 5.7,2013-04-16 21:41:00,
2013-04-16 17:51:00,68.4,54.4,30.15,ESE,112,2.0,7.0,61,0.00,,,-99.99,WeatherLink 5.7,2013-04-16 21:51:00,
2013-04-16 18:01:00,68.1,54.6,30.15,ESE,112,2.0,5.0,62,0.00,,,-99.99,WeatherLink 5.7,2013-04-16 22:01:00,
2013-04-16 18:11:00,67.6,54.6,30.13,ESE,112,2.0,4.0,63,0.00,,,-99.99,WeatherLink 5.7,2013-04-16 22:11:00,
2013-04-16 18:21:00,67.2,54.2,30.13,ESE,112,1.0,5.0,63,0.00,,,-99.99,WeatherLink 5.7,2013-04-16 22:21:00,
2013-04-16 18:31:00,67.1,54.1,30.13,SE,135,1.0,5.0,63,0.00,,,-99.99,WeatherLink 5.7,2013-04-16 22:31:00,
2013-04-16 18:41:00,67.0,54.0,30.12,East,90,2.0,7.0,63,0.00,,,-99.99,WeatherLink 5.7,2013-04-16 22:41:00,
2013-04-16 18:51:00,66.9,54.3,30.13,East,90,1.0,3.0,64,0.00,,,-99.99,WeatherLink 5.7,2013-04-16 22:51:00,
2013-04-16 19:01:00,66.7,54.1,30.13,ENE,67,1.0,4.0,64,0.00,,,-99.99,WeatherLink 5.7,2013-04-16 23:01:00,
2013-04-16 19:11:00,66.5,53.9,30.12,East,90,1.0,4.0,64,0.00,,,-99.99,WeatherLink 5.7,2013-04-16 23:11:00,
2013-04-16 19:21:00,66.2,54.1,30.12,East,90,1.0,5.0,65,0.00,,,-99.99,WeatherLink 5.7,2013-04-16 23:21:00,
2013-04-16 19:31:00,65.9,53.8,30.12,ENE,67,2.0,7.0,65,0.00,,,-99.99,WeatherLink 5.7,2013-04-16 23:31:00,
2013-04-16 19:41:00,65.7,53.6,30.13,North,0,1.0,6.0,65,0.00,,,-99.99,WeatherLink 5.7,2013-04-16 23:41:00,
2013-04-16 19:51:00,65.8,53.7,30.13,ENE,67,2.0,6.0,65,0.00,,,-99.99,WeatherLink 5.7,2013-04-16 23:51:00,
2013-04-16 20:01:00,65.6,53.9,30.13,NE,45,1.0,5.0,66,0.00,,,-99.99,WeatherLink 5.7,2013-04-17 00:01:00,
2013-04-16 20:11:00,65.4,53.7,30.13,NE,45,1.0,6.0,66,0.00,,,-99.99,WeatherLink 5.7,2013-04-17 00:11:00,
2013-04-16 20:21:00,65.3,53.6,30.14,East,90,1.0,5.0,66,0.00,,,-99.99,WeatherLink 5.7,2013-04-17 00:21:00,
2013-04-16 20:31:00,65.2,54.0,30.14,ENE,67,0.0,2.0,67,0.00,,,-99.99,WeatherLink 5.7,2013-04-17 00:31:00,
2013-04-16 20:41:00,64.9,53.7,30.14,ESE,112,1.0,4.0,67,0.00,,,-99.99,WeatherLink 5.7,2013-04-17 00:41:00,
2013-04-16 20:51:00,64.6,53.8,30.15,ESE,112,0.0,3.0,68,0.00,,,-99.99,WeatherLink 5.7,2013-04-17 00:51:00,
2013-04-16 21:01:00,64.3,53.5,30.15,East,90,0.0,3.0,68,0.00,,,-99.99,WeatherLink 5.7,2013-04-17 01:01:00,
2013-04-16 21:11:00,63.9,53.5,30.15,East,90,0.0,2.0,69,0.00,,,-99.99,WeatherLink 5.7,2013-04-17 01:11:00,
2013-04-16 21:21:00,63.3,53.0,30.15,North,0,0.0,3.0,69,0.00,,,-99.99,WeatherLink 5.7,2013-04-17 01:21:00,
2013-04-16 21:31:00,63.0,52.7,30.16,ESE,112,0.0,4.0,69,0.00,,,-99.99,WeatherLink 5.7,2013-04-17 01:31:00,
2013-04-16 21:41:00,62.2,52.7,30.16,SSE,157,0.0,2.0,71,0.00,,,-99.99,WeatherLink 5.7,2013-04-17 01:41:00,
2013-04-16 21:51:00,61.5,52.4,30.16,SSE,157,0.0,1.0,72,0.00,,,-99.99,WeatherLink 5.7,2013-04-17 01:51:00,
2013-04-16 22:01:00,60.8,52.1,30.16,SSE,157,0.0,1.0,73,0.00,,,-99.99,WeatherLink 5.7,2013-04-17 02:01:00,
2013-04-16 22:11:00,60.3,52.0,30.16,SSE,157,0.0,1.0,74,0.00,,,-99.99,WeatherLink 5.7,2013-04-17 02:11:00,
2013-04-16 22:21:00,60.2,51.9,30.15,SSE,157,0.0,1.0,74,0.00,,,-99.99,WeatherLink 5.7,2013-04-17 02:21:00,
2013-04-16 22:31:00,60.1,52.1,30.15,NE,45,0.0,3.0,75,0.00,,,-99.99,WeatherLink 5.7,2013-04-17 02:31:00,
2013-04-16 22:41:00,60.3,52.3,30.15,NE,45,1.0,4.0,75,0.00,,,-99.99,WeatherLink 5.7,2013-04-17 02:41:00,
2013-04-16 22:51:00,60.3,52.3,30.15,NE,45,0.0,2.0,75,0.00,,,-99.99,WeatherLink 5.7,2013-04-17 02:51:00,
2013-04-16 23:01:00,60.1,52.1,30.15,ESE,112,0.0,2.0,75,0.00,,,-99.99,WeatherLink 5.7,2013-04-17 03:01:00,
2013-04-16 23:11:00,59.6,52.4,30.14,West,270,0.0,3.0,77,0.00,,,-99.99,WeatherLink 5.7,2013-04-17 03:11:00,
2013-04-16 23:21:00,59.2,52.0,30.15,WSW,247,0.0,2.0,77,0.00,,,-99.99,WeatherLink 5.7,2013-04-17 03:21:00,
2013-04-16 23:31:00,59.0,52.5,30.15,North,0,0.0,3.0,79,0.00,,,-99.99,WeatherLink 5.7,2013-04-17 03:31:00,
2013-04-16 23:41:00,59.2,52.0,30.15,North,0,0.0,2.0,77,0.00,,,-99.99,WeatherLink 5.7,2013-04-17 03:41:00,
2013-04-16 23:51:00,59.3,52.4,30.15,North,0,0.0,3.0,78,0.00,,,-99.99,WeatherLink 5.7,2013-04-17 03:51:00,